TimeCDT,TemperatureF,Dew PointF,Humidity,Sea Level PressureIn,VisibilityMPH,Wind Direction,Wind SpeedMPH,Gust SpeedMPH,PrecipitationIn,Events,Conditions,WindDirDegrees,DateUTC
12:53 AM,73.0,71.1,93,30.07,10.0,Calm,Calm,-,N/A,,Clear,0,2013-06-23 05:53:00
1:53 AM,72.0,71.1,97,30.05,10.0,Calm,Calm,-,N/A,,Clear,0,2013-06-23 06:53:00
2:53 AM,72.0,70.0,93,30.04,10.0,Calm,Calm,-,N/A,,Clear,0,2013-06-23 07:53:00
3:53 AM,71.1,69.1,93,30.04,10.0,Calm,Calm,-,N/A,,Clear,0,2013-06-23 08:53:00
4:53 AM,71.1,69.1,93,30.04,10.0,Calm,Calm,-,N/A,,Clear,0,2013-06-23 09:53:00
5:53 AM,70.0,69.1,97,30.06,10.0,North,-9999.0,-,N/A,,Clear,0,2013-06-23 10:53:00
6:53 AM,72.0,70.0,93,30.07,10.0,Calm,Calm,-,N/A,,Clear,0,2013-06-23 11:53:00
7:53 AM,75.9,72.0,87,30.08,10.0,Calm,Calm,-,N/A,,Clear,0,2013-06-23 12:53:00
8:53 AM,80.1,73.0,79,30.09,10.0,ENE,3.5,-,N/A,,Clear,70,2013-06-23 13:53:00
9:53 AM,82.9,73.9,74,30.10,10.0,Variable,6.9,-,N/A,,Mostly Cloudy,0,2013-06-23 14:53:00
10:30 AM,84.2,73.4,70,30.11,10.0,Calm,Calm,-,N/A,,Scattered Clouds,0,2013-06-23 15:30:00
10:53 AM,84.9,72.0,65,30.11,10.0,ENE,5.8,-,N/A,,Scattered Clouds,60,2013-06-23 15:53:00
11:53 AM,84.9,71.1,63,30.10,10.0,North,8.1,25.3,N/A,,Scattered Clouds,350,2013-06-23 16:53:00
12:53 PM,88.0,70.0,55,30.07,10.0,Calm,Calm,-,N/A,,Scattered Clouds,0,2013-06-23 17:53:00
1:53 PM,89.1,71.1,55,30.05,10.0,Variable,4.6,-,N/A,,Scattered Clouds,0,2013-06-23 18:53:00
2:53 PM,91.0,71.1,52,30.03,10.0,NE,4.6,-,N/A,,Clear,50,2013-06-23 19:53:00
3:53 PM,90.0,70.0,52,30.03,10.0,NE,8.1,-,N/A,,Clear,40,2013-06-23 20:53:00
4:21 PM,82.4,71.6,70,30.06,10.0,SE,20.7,38.0,N/A,,Squalls,130,2013-06-23 21:21:00
4:33 PM,80.6,69.8,70,30.06,10.0,SE,21.9,31.1,N/A,,Mostly Cloudy,130,2013-06-23 21:33:00
4:53 PM,79.0,69.1,72,30.04,10.0,SE,10.4,-,N/A,,Mostly Cloudy,130,2013-06-23 21:53:00
5:53 PM,79.0,69.1,72,30.05,10.0,SW,8.1,-,N/A,,Clear,220,2013-06-23 22:53:00
6:53 PM,78.1,70.0,76,30.05,10.0,SSE,3.5,-,N/A,,Clear,150,2013-06-23 23:53:00
7:53 PM,78.1,70.0,76,30.06,10.0,ESE,6.9,-,N/A,,Clear,120,2013-06-24 00:53:00
8:53 PM,75.9,71.1,85,30.06,10.0,SE,3.5,-,N/A,,Mostly Cloudy,140,2013-06-24 01:53:00
9:53 PM,75.0,72.0,90,30.08,10.0,Calm,Calm,-,N/A,,Clear,0,2013-06-24 02:53:00
10:53 PM,75.0,72.0,90,30.09,10.0,Calm,Calm,-,N/A,,Clear,0,2013-06-24 03:53:00
11:53 PM,73.9,72.0,93,30.10,10.0,Calm,Calm,-,N/A,,Clear,0,2013-06-24 04:53:00